Probability
0 0 0 0 0 0 0 0 0 0 0 0 0 0 0 0 0 0 0 0 0 0 0 0 0 0 0 0 0 0 0 0 0 0 0 0 0 0 0 0 0 0 0
0 0 0 0 0 0 0 0 0 0 0 0 0 0 0 0 0 0 0 0 0 0 0 0 0 0 0 0 0 0 0 0 0 0 0 0 0 0 0 0 0 0 0
0 0 0 0 0 0 0 0 0 0 0 0 0 0 0 0 0 0 0 0 0 0 0 0 0 0 0 0 0 0 0 0 0 0 0 0 0 0 0 0 0 0 0
0 0 0 0 0 0 0 0 0 0 0 0 0 0 0 0 0 0 0 0 0 0 0 0 0 0 0 0 0 0 0 0 0 0 0 0 0 0 0 0 0 0 0
0 0 0 0 0 0 0 0 0 0 0 0 0 0 0 0 0 0 0 0 0 0 0 0 0 0 0 0 0 0 0 0 0 0 0 0 0 0 0 0 0 0 0
0 0 0 0 0 0 0 0 0 0 0 0 0 0 0 0 0 0 0 0 0 0 0 0 0 0 0 0 0 0 0 0 0 0 0 0 0 0 0 0 0 0 0
0 0 0 0 0 0 0 0 0 0 0 0 0 0 0 0 0 0 0 0 0 0 0 0 0 0 0 0 0 0 0 0 0 0 0 0 0 0 0 0 0 0 0
0 0 0 0 0 0 0 0 0 0 0 0 0 0 0 0 0 0 0 0 0 0 0 0 0 0 0 0 0 0 0 0 0 0 0 0 0 0 0 0 0 0 0
0 0 0 0 0 0 0 0 0 0 0 0 0 0 0 0 0 0 0 0 0 0 0 0 0 0 0 0 0 0 0 0 0 0 0 0 0 0 0 0 0 0 0
0 0 0 0 0 0 0 0 0 0 0 0 0 0 0 0 0 0 0 0 0 0 0 0 0 0 0 0 0 0 0 0 0 0 0 0 0 0 0 0 0 0 0
0 0 0 0 0 0 0 0 0 0 0 0 0 0 0 0 0 0 0 0 0 0 0 0 0 0 0 0 0 0 0 0 0 0 0 0 0 0 0 0 0 0 0
0 0 0 0 0 0 0 0 0 0 0 0 0 0 0 0 0 0 0 0 0 0 0 0 0 0 0 0 0 0 0 0 0 0 0 0 0 0 0 0 0 0 0
0 0 0 0 0 0 0 0 0 0 0 0 0 0 0 0 0 0 0 0 0 0 0 0 0 0 0 0 0 0 0 0 0 0 0 0 0 0 0 0 0 0 0
0 0 0 0 0 0 0 0 0 0 0 0 0 0 0 0 0 0 0 0 0 0 0 0 0 0 0 0 0 0 0 0 0 0 0 0 0 0 0 0 0 0 0
0 0 0 0 0 0 0 0 0 0 0 0 0 0 0 0 0 0 0 0 0 0 0 0 0 0 0 0 0 0 0 0 0 0 0 0 0 0 0 0 0 0 0
0 0 0 0 0 0 0 0 0 0 0 0 0 0 0 0 0 0 0 0 0 0 0 0 0 0 0 0 0 0 0 0 0 0 0 0 0 0 0 0 0 0 0
0 0 0 0 0 0 0 0 0 0 0 0 0 0 0 0 0 0 0 0 0 0 0 0 0 0 0 0 0 0 0 0 0 0 0 0 0 0 0 0 0 0 0
0 0 0 0 0 0 0 0 0 0 0 0 0 0 0 0 0 0 0 0 0 0 0 0 0 0 0 0 0 0 0 0 0 0 0 0 0 0 0 0 0 0 0
0 0 0 0 0 0 0 0 0 0 0 0 0 0 0 0 0 0 0 0 0 0 0 0 0 0 0 0 0 0 0 0 0 0 0 0 0 0 0 0 0 0 0
0 0 0 0 0 0 0 0 0 0 0 0 0 0 0 0 0 0 0 0 0 0 0 0 0 0 0 0 0 0 0 0 0 0 0 0 0 0 0 0 0 0 0
0 0 0 0 0 0 0 0 0 0 0 0 0 0 0 0 0 0 0 0 0 0 0 0 0 0 0 0 0 0 0 0 0 0 0 0 0 0 0 0 0 0 0
0 0 0 0 0 0 0 0 0 0 0 0 0 0 0 0 0 0 0 0 0 0 0 0 0 0 0 0 0 0 0 0 0 0 0 0 0 0 0 0 0 0 0
0 0 0 0 0 0 0 0 0 0 0 0 0 0 0 0 0 0 0 0 0 0 0 0 0 0 0 0 0 0 0 0 0 0 0 0 0 0 0 0 0 0 0
0 0 0 0 0 0 0 0 0 0 0 0 0 0 0 0 0 0 0 0 0 0 0 0 0 0 0 0 0 0 0 0 0 0 0 0 0 0 0 0 0 0 0
0 0 0 0 0 0 0 0 0 0 0 0 0 0 0 0 0 0 0 0 0 0 0 0 0 0 0 0 0 0 0 0 0 0 0 0 0 0 0 0 0 0 0
0 0 0 0 0 0 0 0 0 0 0 0 0 0 0 0 0 0 0 0 0 0 0 0 0 0 0 0 0 0 0 0 0 0 0 0 0 0 0 0 0 0 0
Wind_Speed
5 5 6 6 6 5 6 6 6 5 5 5 5 5 5 5 5 5 5 5 6 5 4 5 5 3 3 3 2 2 2 2 4 4 2 2 2 3 3 3 3 4 5
5 5 5 5 5 6 6 6 5 6 5 5 5 5 6 6 6 6 6 6 7 6 6 5 5 4 4 3 3 4 3 3 4 5 3 2 3 3 3 4 4 4 4
4 4 5 5 6 7 7 6 5 5 5 5 5 6 6 6 6 7 6 7 7 7 7 7 6 5 5 4 4 4 3 3 3 4 4 2 2 2 2 3 3 3 4
4 4 5 6 6 6 6 5 6 5 5 6 6 6 6 6 6 6 6 7 7 6 6 7 6 7 7 6 5 5 3 3 3 3 4 3 3 2 2 3 4 3 4
4 5 6 5 4 4 5 5 5 5 6 5 5 5 5 5 5 6 7 7 7 6 5 6 6 6 7 6 5 4 4 3 3 3 4 3 3 2 3 2 4 4 4
4 5 4 4 4 4 4 4 5 5 5 5 5 5 5 5 7 9 7 6 6 6 6 5 5 6 6 8 8 7 7 5 5 4 4 4 5 3 2 2 3 3 4
4 4 4 4 4 4 4 4 5 5 5 5 5 5 6 6 8 9 8 5 5 6 6 5 4 4 6 5 6 7 6 7 7 6 5 6 5 4 3 3 4 4 5
4 4 4 4 4 4 4 4 4 4 4 5 5 5 5 5 7 8 8 6 5 5 5 6 5 5 5 5 4 4 4 5 6 5 5 5 4 3 3 4 4 4 5
4 4 4 4 4 4 5 5 4 3 3 4 3 4 5 5 6 7 7 4 4 5 4 4 5 5 7 7 5 4 4 3 3 4 4 4 4 4 2 1 1 2 4
4 4 4 4 5 5 5 4 3 3 3 3 3 3 4 4 5 6 7 3 4 3 3 3 5 6 7 7 6 5 5 4 2 1 2 3 3 3 3 2 3 3 3
4 3 3 3 4 4 3 2 2 2 2 2 2 2 3 3 4 6 6 4 4 3 3 3 3 6 6 7 6 4 5 3 2 2 2 1 1 2 2 2 3 4 4
2 2 2 3 2 2 2 2 2 2 2 2 2 2 2 2 3 5 6 6 5 4 3 3 3 5 6 6 5 4 4 2 1 1 2 2 2 2 2 2 3 3 4
2 2 2 2 1 1 2 2 2 2 2 2 2 2 2 1 2 4 6 7 6 4 3 3 3 4 4 3 3 3 2 2 2 2 3 3 2 2 1 1 2 2 3
2 2 1 1 1 1 1 2 2 3 3 3 3 3 2 2 2 2 2 3 4 3 2 2 4 3 2 2 1 1 1 2 2 3 2 2 1 1 1 1 2 2 3
2 2 1 1 1 1 1 2 3 3 4 4 4 3 3 3 3 3 3 2 3 3 3 2 1 1 1 1 1 0 1 1 2 2 1 1 1 2 2 1 1 1 2
2 2 1 1 1 1 1 1 1 1 2 3 3 3 2 3 3 4 4 4 4 5 3 2 2 2 2 2 1 1 1 2 2 1 2 2 2 2 2 2 1 2 3
3 2 2 2 2 2 2 2 1 2 1 1 2 2 2 2 2 3 4 4 4 5 3 2 2 2 2 2 2 2 2 2 1 2 2 2 2 2 2 2 2 2 3
2 2 2 2 2 2 2 2 1 1 1 2 2 2 1 1 1 1 2 3 2 2 2 2 2 2 2 2 2 2 2 1 1 2 2 2 2 2 2 3 3 3 4
2 2 1 1 1 1 1 1 1 1 1 1 1 1 1 0 1 2 2 2 2 2 2 2 2 2 2 2 2 2 2 2 2 2 2 2 2 2 3 3 3 4 4
2 2 1 1 1 1 1 1 1 1 1 1 1 1 1 0 0 0 0 1 1 2 2 2 2 2 2 2 2 2 2 2 2 3 3 3 3 3 4 4 4 4 4
1 1 1 1 1 1 1 2 2 2 2 2 2 1 1 1 1 1 1 1 2 2 2 2 2 2 2 2 2 3 3 3 3 3 3 3 3 3 3 4 4 4 4
1 1 1 2 1 1 1 2 2 2 2 2 1 1 1 1 1 1 2 2 2 2 2 2 2 2 2 3 3 3 3 4 3 3 3 3 3 3 3 3 3 3 4
1 1 1 1 1 2 2 2 2 2 2 2 2 1 1 2 2 2 2 2 1 1 2 2 2 2 2 3 3 4 4 4 4 4 4 3 3 3 3 4 4 4 4
2 2 2 1 1 2 2 2 2 2 2 2 2 2 2 2 2 2 2 2 2 2 2 2 3 4 4 3 3 3 4 4 4 4 5 5 4 4 4 4 4 5 5
2 2 2 2 2 2 2 2 2 2 2 2 2 2 2 2 2 2 2 2 2 2 3 3 3 3 5 6 5 5 6 6 5 4 4 4 5 5 5 5 5 5 5
2 2 2 2 2 2 3 3 3 3 3 2 2 3 3 3 3 3 2 2 2 3 3 3 4 5 5 5 6 7 7 7 6 6 5 5 5 5 5 5 5 5 5
Wind_Direction
216 219 218 217 216 213 217 221 224 227 224 223 222 222 224 222 211 209 211 205 209 215 210 209 220 210 210 207 202 208 215 209 243 268 258 257 252 273 294 289 284 286 293
217 219 223 221 214 217 225 225 223 228 224 222 221 223 227 224 213 212 213 208 209 214 213 210 218 208 214 208 205 211 217 216 226 260 275 268 259 261 278 288 295 294 291
210 217 222 221 218 223 228 228 226 226 225 222 219 223 226 224 217 217 215 213 213 215 210 210 214 204 214 212 210 213 218 220 225 242 266 265 267 272 291 290 290 289 294
209 215 223 227 226 228 229 227 226 220 219 220 223 225 225 223 219 214 214 215 215 215 213 213 211 206 211 206 209 213 211 212 217 238 259 266 263 267 273 284 297 295 298
213 221 229 234 234 231 230 226 220 218 221 221 222 226 226 223 222 214 214 212 210 212 213 214 215 211 215 211 210 206 197 205 216 233 251 265 262 264 263 267 282 301 290
220 229 234 233 232 232 233 228 221 221 221 218 220 224 227 231 233 219 213 209 206 207 212 213 213 209 214 220 223 217 205 203 213 224 245 249 260 254 263 265 284 305 294
231 236 232 229 234 236 232 226 226 222 215 219 223 224 232 238 228 217 213 206 207 212 212 209 213 214 207 211 220 226 227 229 223 221 233 245 252 243 239 258 258 264 268
236 240 235 229 235 237 229 227 229 221 218 221 223 223 231 242 225 216 207 204 209 213 212 208 207 211 209 203 204 217 230 236 236 234 234 245 247 235 228 243 254 272 276
248 248 242 232 232 229 229 230 226 219 222 225 223 217 227 237 220 209 196 199 211 217 213 206 205 210 211 203 197 214 235 242 238 231 243 250 252 250 236 220 243 269 281
260 259 251 238 231 228 228 226 226 217 221 219 224 223 225 231 220 208 197 196 209 215 213 210 209 212 213 207 201 203 225 237 203 217 244 259 257 251 244 234 227 238 255
272 270 259 245 239 237 231 218 208 210 213 218 225 237 234 231 221 208 201 203 208 208 214 218 216 213 218 219 215 210 225 220 190 209 233 249 256 252 247 246 238 231 232
281 273 268 256 239 230 219 214 191 186 196 216 231 248 249 240 230 223 212 212 210 207 215 215 209 205 216 220 219 218 220 207 181 197 230 246 254 259 258 255 250 247 243
288 279 280 280 254 222 204 202 194 190 199 213 216 234 250 241 235 229 221 215 212 211 203 200 200 201 203 211 213 207 199 191 200 223 242 254 257 267 269 274 273 268 271
270 277 279 264 260 234 215 202 199 204 210 214 216 229 240 238 231 223 213 208 203 203 191 174 178 180 170 144 143 188 202 209 223 236 253 269 277 266 265 270 280 296 293
273 276 275 253 234 230 227 224 223 223 214 215 217 214 218 234 235 213 194 197 188 177 142 129 134 136 144 139 119 151 191 205 231 249 254 263 270 271 277 281 266 267 261
267 275 265 256 236 216 219 310 313 274 272 244 232 223 241 250 235 207 203 193 173 151 136 161 178 183 192 200 205 222 223 226 234 246 248 251 259 266 282 291 280 260 269
241 253 252 243 234 226 223 228 280 331 335 292 254 244 244 235 215 205 197 178 159 146 147 179 200 208 213 212 213 220 231 234 235 241 247 255 261 266 272 275 276 277 276
247 247 240 237 233 225 223 230 231 238 287 308 302 292 281 240 215 201 177 151 163 168 186 201 217 222 221 218 219 230 241 239 236 241 244 247 245 254 266 272 270 273 279
251 253 249 244 235 227 215 207 207 213 238 288 332 326 322 297 65 68 114 155 187 205 211 217 222 221 219 217 219 225 230 235 242 242 243 246 242 242 254 261 267 272 272
249 255 251 238 228 216 205 203 204 206 221 239 263 286 307 61 40 307 147 191 201 219 226 226 228 222 213 216 218 219 228 237 238 238 242 243 241 239 249 255 257 261 263
247 245 226 220 221 213 208 215 216 210 218 234 253 253 221 200 214 222 224 230 230 235 236 234 236 230 224 220 218 221 227 236 236 238 240 241 241 245 248 248 253 257 266
223 235 234 225 225 220 218 216 210 212 217 227 256 262 228 226 229 231 233 244 247 247 244 236 241 236 227 225 224 226 232 238 238 238 241 241 240 243 245 247 252 256 260
210 216 230 237 225 221 225 222 216 216 222 223 219 222 222 226 233 244 249 252 254 255 249 238 245 251 244 236 227 221 229 237 236 229 232 237 239 241 241 246 248 252 258
207 209 216 226 227 227 231 233 225 224 226 227 224 226 232 238 244 252 261 263 258 257 252 247 248 255 260 259 247 236 236 241 235 226 220 226 233 238 239 245 247 246 252
206 210 215 218 219 225 233 237 231 227 228 227 226 230 234 238 248 255 260 267 270 270 269 263 259 259 258 258 257 253 253 253 245 227 215 219 226 229 232 239 246 247 246
213 216 221 220 222 223 226 232 235 233 232 231 226 227 229 234 244 252 255 259 268 270 269 266 265 265 263 258 258 261 258 253 242 229 217 215 220 228 227 234 239 241 241